[[{"header":{"parameterUnit":"m.s-1","parameterCategory":1,"la1":30.2991,"la2":30.254,"lo1":-89.0895,"lo2":-89.0444,"dy":0.0017,"dx":0.0017,"nx":28,"ny":28,"refTime":"2025-08-16T03:00:00:Z","depth":0,"parameterNumber":2,"parameterNumberName":"U-component_of_WINDS"},"data":[0,0,0,0,0,0,0,0,0,0,0,0,0,0,0,0,0,0,0,0,0,0,0,0,0,0,0,0,0,0,0,0,0,0,0,0,0,0,0,0,0,0,0,0,0,0,0,0,0,0,0,0,0,0,0,0,0,0,2.7582,2.7578,0,2.7228,2.7224,2.722,2.6915,2.6912,2.6908,2.6905,2.6525,2.6519,2.6512,0,0,0,0,0,0,0,0,0,0,0,0,0,2.7982,2.7976,2.7583,2.7578,2.7574,2.7229,2.7224,2.7219,2.6916,2.6911,2.6907,2.6904,2.6528,2.6519,2.6511,0,0,0,0,0,0,0,0,0,0,0,0,0,2.7736,2.7975,2.7583,2.7381,2.736,2.723,2.7224,2.7218,2.6916,2.6911,2.6906,2.6902,2.653,2.652,2.651,2.6547,0,0,2.6478,2.6473,0,0,0,0,0,0,0,0,2.7751,2.7722,2.7415,2.7395,2.737,2.7111,2.7225,2.6992,2.6918,2.7084,2.6905,2.6899,2.6723,2.6697,2.6641,2.6529,2.6513,2.6477,2.6471,2.6466,2.6463,0,0,0,0,0,0,0,2.7768,2.7735,2.7441,2.7411,2.7384,2.7303,2.7263,2.718,2.6936,2.7069,2.7046,2.701,2.671,2.6652,2.6629,2.6507,2.6477,2.6468,2.6462,2.6458,2.6408,2.6412,0,0,0,0,0,0,2.7818,2.7751,2.7453,2.7431,2.7553,2.7301,2.7255,2.7199,2.6936,2.6891,2.7014,2.6997,2.6672,2.6642,2.6615,2.664,2.6466,2.6457,2.6451,2.6403,2.6409,2.6414,0,0,0,0,0,0,2.7828,2.7795,2.7467,2.7585,2.7537,2.7299,2.7238,2.7195,2.7136,2.6895,2.6848,2.7,2.6667,2.663,2.6567,2.6622,2.6452,2.6442,2.6397,2.6405,2.6411,2.6691,0,0,0,0,0,0,2.7841,2.78,2.7814,2.7588,2.7532,2.743,2.7242,2.7191,2.7121,2.7095,2.6869,2.6827,2.666,2.6585,2.6557,2.6605,2.6434,2.6391,2.64,2.6409,2.6676,2.6707,2.6734,0,0,0,0,0,2.7856,2.7903,2.7817,2.7782,2.7546,2.7434,2.7401,2.7213,2.7127,2.7137,2.6983,2.6834,2.6623,2.6581,2.6547,2.6593,2.6386,2.6398,2.6408,2.6663,2.6701,2.6734,0,0,0,0,0,0,2.8134,2.7869,2.777,2.7747,2.7617,2.7383,2.7389,2.726,2.7146,2.7125,2.6892,2.6843,2.6807,2.6693,2.6651,2.6615,2.6484,2.6489,2.669,2.6724,2.6753,2.6778,2.6425,0,0,0,0,0,2.8195,2.8131,2.7901,2.7902,2.7842,2.763,2.7573,2.7441,2.7293,2.7234,2.7074,2.6933,2.6834,2.6773,2.6669,2.666,2.6605,2.6675,2.6705,2.673,2.6735,2.6721,2.6749,2.6451,2.645,2.645,0,0,2.8315,2.8162,2.8135,2.7954,2.7837,2.7772,2.7583,2.7522,2.7469,2.7222,2.7155,2.7034,2.686,2.6826,2.6802,2.673,2.6807,2.6744,2.6766,2.6756,2.6735,2.6764,2.6789,2.6458,2.6457,2.6455,0,0,2.85,2.8381,2.8369,2.8258,2.8086,2.7945,2.7944,2.7731,2.7643,2.7574,2.7387,2.732,2.7156,2.704,2.6959,2.711,2.6967,2.7082,2.7232,2.7221,2.7245,2.7264,2.7315,2.7337,2.7089,2.709,2.709,0,2.8669,2.8569,2.8377,2.8329,2.8254,2.8036,2.802,2.7919,2.7721,2.7672,2.7596,2.7388,2.7255,2.719,2.7228,2.7171,2.7158,2.7103,2.7258,2.7276,2.7291,2.7337,2.7357,2.7105,2.7103,2.7101,2.71,0,2.8784,2.8718,2.8728,2.855,2.8476,2.8444,2.8244,2.8192,2.8069,2.7935,2.7866,2.7702,2.7561,2.7537,2.7411,2.7454,2.7415,2.7303,2.7166,2.7338,2.7377,2.7393,2.7126,2.7121,2.7116,2.7112,0,0,2.9127,2.885,2.8857,2.8774,2.8572,2.8514,2.8472,2.8341,2.83,2.8172,2.8128,2.7998,2.7895,2.7804,2.7665,2.7657,2.7784,2.7544,2.7536,2.7592,2.7818,2.7902,2.7926,2.7692,2.7695,2.7697,2.7832,0,2.9277,2.9195,2.9024,2.8994,2.8929,2.8724,2.8687,2.8557,2.8433,2.8356,2.8215,2.8126,2.7997,2.7942,2.7925,2.7773,2.7826,2.7761,2.7643,2.7642,2.769,2.7946,2.8032,2.8168,2.7846,2.7849,2.7851,0,2.9439,2.9331,2.9297,2.9103,2.9069,2.904,2.8907,2.8838,2.8686,2.8596,2.85,2.835,2.829,2.8171,2.8085,2.8045,2.7987,2.7906,2.7906,2.7883,2.7753,2.7926,2.8206,2.8226,2.7873,2.7871,2.787,0,2.9691,2.9536,2.9496,2.9432,2.9204,2.9188,2.9092,2.8936,2.887,2.8753,2.8706,2.8583,2.8514,2.842,2.8239,2.8169,2.8173,2.8037,2.8091,2.8096,2.8096,2.8097,2.8367,2.8068,2.8068,2.8067,2.8067,0,2.9872,2.9859,2.9606,2.9581,2.9559,2.9363,2.9345,2.9228,2.9093,2.9038,2.8853,2.8804,2.8571,2.8495,2.8353,2.8302,2.8273,2.8195,2.8156,2.8209,2.8219,2.8163,2.8148,2.8073,2.8071,2.807,2.807,0,3.0146,2.9978,2.992,2.9713,2.9661,2.9654,2.9473,2.9439,2.9307,2.924,2.9213,2.9003,2.8904,2.8718,2.8564,2.8468,2.8447,2.8382,2.85,2.8475,2.8539,2.8535,2.8778,2.8799,2.8494,2.8497,2.85,0,3.0271,3.0257,3.0052,3.0006,2.9918,2.9845,2.9778,2.9585,2.9522,2.9353,2.9338,2.9227,2.9126,2.8978,2.8808,2.869,2.8618,2.8713,2.8598,2.8653,2.8615,2.8617,2.8613,2.8736,2.8741,2.8744,2.8747,0,3.0511,3.043,3.0344,3.0231,3.0159,3.0058,2.9947,2.9919,2.9699,2.9638,2.9538,2.9462,2.931,2.9199,2.9059,2.8952,2.8812,2.8787,2.8792,2.8842,2.891,2.8871,2.8566,2.8779,2.8776,2.8774,2.8772,2.8771,3.071,3.0689,3.0543,3.0453,3.0352,3.0255,3.0214,3.008,2.9996,2.9861,2.9752,2.9661,2.951,2.9307,2.9212,2.9135,2.9067,2.9076,2.9077,2.9082,2.9102,2.8929,2.9108,2.9107,2.9106,2.9105,2.9104,0,3.0937,3.0835,3.0756,3.0611,3.0542,3.0426,3.0298,3.0245,3.0171,3.0045,2.9954,2.984,2.9734,2.956,2.9439,2.9411,2.9343,2.9385,2.9382,2.9359,2.917,2.9176,2.9442,2.9442,2.9441,2.9441,2.9441,2.9441,3.1046,3.1004,3.0907,3.0812,3.0707,3.0623,3.056,3.0468,3.0368,3.0251,3.0165,3.0056,2.9909,2.9777,2.9674,2.9625,2.9587,2.9649,2.9579,2.9404,2.9373,2.9342,2.9347,2.9643,2.9644,2.9774,2.9775,2.9776]},{"header":{"parameterUnit":"m.s-1","parameterCategory":1,"la1":30.2991,"la2":30.254,"lo1":-89.0895,"lo2":-89.0444,"dy":0.0017,"dx":0.0017,"nx":28,"ny":28,"refTime":"2025-08-16T03:00:00:Z","depth":0,"parameterNumber":3,"parameterNumberName":"V-component_of_WINDS"},"data":[0,0,0,0,0,0,0,0,0,0,0,0,0,0,0,0,0,0,0,0,0,0,0,0,0,0,0,0,0,0,0,0,0,0,0,0,0,0,0,0,0,0,0,0,0,0,0,0,0,0,0,0,0,0,0,0,0,0,1.1761,1.1763,0,1.1947,1.1949,1.1951,1.2062,1.2063,1.2063,1.2064,1.2244,1.2248,1.2252,0,0,0,0,0,0,0,0,0,0,0,0,0,1.1489,1.1493,1.176,1.1763,1.1765,1.1947,1.1949,1.1952,1.2062,1.2063,1.2063,1.2064,1.2242,1.2247,1.2253,0,0,0,0,0,0,0,0,0,0,0,0,0,1.1634,1.1495,1.176,1.1842,1.1851,1.1946,1.195,1.1953,1.2062,1.2063,1.2064,1.2064,1.2241,1.2247,1.2253,1.2278,0,0,1.2273,1.2276,0,0,0,0,0,0,0,0,1.1626,1.1644,1.1828,1.1837,1.1847,1.1983,1.192,1.2061,1.2062,1.1982,1.2064,1.2065,1.2155,1.2169,1.2202,1.2286,1.2294,1.2274,1.2278,1.228,1.2282,0,0,0,0,0,0,0,1.1615,1.1636,1.1834,1.183,1.1842,1.1866,1.1888,1.1947,1.2061,1.1989,1.1997,1.2018,1.2161,1.2195,1.2207,1.2296,1.2273,1.2279,1.2283,1.2286,1.2409,1.2409,0,0,0,0,0,0,1.1594,1.1627,1.1828,1.184,1.1736,1.1871,1.1895,1.1938,1.2061,1.2081,1.2018,1.2023,1.2184,1.2199,1.2214,1.2251,1.228,1.2286,1.229,1.241,1.2409,1.2409,0,0,0,0,0,0,1.1587,1.1611,1.1821,1.1736,1.1765,1.1875,1.1922,1.1941,1.1976,1.2083,1.2103,1.2033,1.2185,1.2205,1.2262,1.2258,1.2289,1.2295,1.2411,1.241,1.2409,1.2324,0,0,0,0,0,0,1.1579,1.1608,1.162,1.1736,1.1769,1.1868,1.1922,1.1944,1.1988,1.1997,1.2103,1.2121,1.2187,1.2251,1.2268,1.2268,1.23,1.2411,1.241,1.2409,1.2327,1.232,1.2314,0,0,0,0,0,1.1569,1.1586,1.1621,1.1644,1.1788,1.1868,1.1886,1.1966,1.1988,1.2,1.2069,1.2117,1.2256,1.2256,1.2276,1.2277,1.2412,1.2411,1.2409,1.233,1.2321,1.2314,0,0,0,0,0,0,1.1464,1.1603,1.1642,1.1698,1.1771,1.1887,1.1904,1.1954,1.2019,1.2024,1.2117,1.2139,1.2187,1.2238,1.2236,1.2307,1.2339,1.2342,1.2272,1.2265,1.2258,1.2245,1.2306,0,0,0,0,0,1.1448,1.1505,1.1622,1.166,1.1695,1.1793,1.1831,1.1886,1.1964,1.1994,1.2067,1.2137,1.2197,1.2234,1.2294,1.2335,1.2359,1.2346,1.2339,1.2333,1.2334,1.2359,1.2354,1.2404,1.2404,1.2404,0,0,1.1414,1.1497,1.1527,1.1641,1.1704,1.1758,1.1818,1.1872,1.1913,1.2001,1.2061,1.2116,1.22,1.225,1.2275,1.2294,1.2325,1.2331,1.2326,1.233,1.2357,1.2352,1.2347,1.2403,1.2403,1.2404,0,0,1.138,1.1449,1.1489,1.1552,1.1648,1.1713,1.1722,1.1831,1.1873,1.1935,1.2003,1.2049,1.215,1.2208,1.225,1.2239,1.2286,1.2256,1.222,1.2243,1.2239,1.2236,1.2231,1.2229,1.2256,1.2256,1.2256,0,1.1325,1.1413,1.1502,1.1554,1.1601,1.1688,1.1727,1.1782,1.189,1.192,1.194,1.2069,1.2132,1.2196,1.2193,1.2225,1.2236,1.2244,1.2233,1.2231,1.2229,1.2226,1.2224,1.2252,1.2252,1.2253,1.2253,0,1.134,1.14,1.1419,1.1527,1.1577,1.1621,1.1714,1.1753,1.1804,1.1866,1.1927,1.2005,1.2084,1.2103,1.2151,1.2173,1.2182,1.2216,1.225,1.2219,1.2217,1.2216,1.2246,1.2247,1.2248,1.2249,0,0,1.1244,1.1402,1.1408,1.1458,1.157,1.1617,1.1664,1.1745,1.1776,1.1847,1.1888,1.1972,1.2006,1.2053,1.2109,1.2129,1.2115,1.2161,1.2165,1.2149,1.2142,1.2115,1.2113,1.2147,1.2147,1.2147,1.2135,0,1.1226,1.1321,1.1402,1.1465,1.152,1.1604,1.1645,1.1716,1.1776,1.1829,1.1893,1.1951,1.1991,1.202,1.2044,1.2111,1.2114,1.2113,1.2183,1.2184,1.2159,1.2112,1.2084,1.2069,1.2135,1.2135,1.2135,0,1.1218,1.1291,1.136,1.1469,1.1495,1.1531,1.1611,1.1662,1.1744,1.1785,1.184,1.1899,1.195,1.1979,1.2049,1.2047,1.208,1.2117,1.2118,1.2127,1.2157,1.2119,1.2066,1.2063,1.2135,1.2135,1.2135,0,1.114,1.1256,1.1313,1.1353,1.148,1.1503,1.1557,1.164,1.1684,1.1752,1.1781,1.1853,1.1892,1.1945,1.2021,1.2036,1.2083,1.2118,1.2116,1.2114,1.2122,1.212,1.2073,1.2144,1.2144,1.2144,1.2144,0,1.1112,1.115,1.128,1.1314,1.136,1.1452,1.1493,1.1553,1.1627,1.1672,1.1747,1.1787,1.1886,1.1937,1.1996,1.2045,1.2061,1.2094,1.2109,1.2088,1.2083,1.211,1.2112,1.2143,1.2143,1.2143,1.2144,0,1.1032,1.1121,1.1188,1.1305,1.1335,1.1363,1.1461,1.1496,1.156,1.1617,1.1635,1.1734,1.1798,1.188,1.1968,1.2008,1.205,1.2073,1.2023,1.2032,1.2025,1.2025,1.1993,1.1993,1.2063,1.2063,1.2062,0,1.1008,1.1041,1.1162,1.12,1.1252,1.1311,1.1357,1.1449,1.1492,1.1589,1.1612,1.1683,1.1744,1.1842,1.1919,1.1987,1.2013,1.1997,1.2023,1.2,1.2012,1.2009,1.2012,1.199,1.1989,1.1988,1.1987,0,1.0955,1.0998,1.1063,1.1143,1.1197,1.1264,1.1333,1.1359,1.1464,1.1509,1.1578,1.1626,1.1718,1.1787,1.1865,1.1916,1.1968,1.1979,1.1982,1.1959,1.1929,1.1945,1.2005,1.1978,1.1979,1.198,1.198,1.1981,1.0902,1.0935,1.1026,1.1096,1.1159,1.1223,1.1262,1.1333,1.1393,1.1479,1.1528,1.1595,1.1675,1.1787,1.1836,1.1887,1.1906,1.191,1.1912,1.1911,1.1904,1.1921,1.1901,1.1901,1.1902,1.1902,1.1902,0,1.0852,1.0916,1.098,1.1077,1.1131,1.118,1.126,1.1301,1.136,1.1433,1.1493,1.1572,1.1639,1.1722,1.1794,1.1819,1.1844,1.1834,1.1833,1.1844,1.1883,1.1873,1.1813,1.1813,1.1813,1.1813,1.1813,1.1813,1.0833,1.0892,1.0945,1.1035,1.1097,1.1167,1.1208,1.1266,1.1325,1.1411,1.1469,1.1525,1.1601,1.1679,1.1742,1.1765,1.1787,1.177,1.1799,1.1833,1.1841,1.1849,1.184,1.1774,1.1774,1.1756,1.1756,1.1756]}]]